FW4263 Weather Reports


time (UTC)temp
C
wind
direction
speed
KPH
gust
KPH
rain 1hr
cm
rain 24hr
cm
rain mn
cm
humidity
%
barometer
mb
20260906052457 25 115 0.0 0.0 0.00 0.00 0.00 88 1012.1
20260906051957 25 115 0.0 0.0 0.00 0.00 0.00 87 1012.0
20260906051000 26 115 0.0 0.0 0.00 0.00 0.00 87 1012.0
20260906050501 26 115 0.0 0.0 0.00 0.00 0.00 86 1012.0
20260906045000 26 115 0.0 0.0 0.00 0.00 0.00 86 1011.8
20260906044500 26 115 0.0 0.0 0.00 0.00 0.00 86 1011.8
20260906044000 26 115 0.0 0.0 0.00 0.00 0.00 86 1011.9
20260906043500 26 115 0.0 0.0 0.00 0.00 0.00 86 1011.9
20260906042501 26 115 0.0 0.0 0.00 0.00 0.00 85 1011.9
20260906042000 26 115 0.0 0.0 0.00 0.00 0.00 85 1012.0
20260906041502 26 115 0.0 0.0 0.00 0.00 0.00 85 1011.9
20260906041000 26 115 0.0 0.0 0.00 0.00 0.00 85 1012.0
20260906040502 26 115 0.0 0.0 0.00 0.00 0.00 84 1011.9
20260906035500 26 115 0.0 1.6 0.00 0.00 0.00 84 1011.9
20260906035000 26 115 0.0 0.0 0.00 0.00 0.00 85 1011.9
20260906034500 26 115 0.0 0.0 0.00 0.00 0.00 85 1011.9
20260906034000 26 115 0.0 0.0 0.00 0.00 0.00 84 1012.0
20260906033500 26 115 0.0 0.0 0.00 0.00 0.00 84 1012.0
20260906032500 27 115 0.0 0.0 0.00 0.00 0.00 83 1012.0
20260906032000 27 115 0.0 0.0 0.00 0.00 0.00 83 1012.1
20260906031000 27 115 0.0 0.0 0.00 0.00 0.00 84 1012.0
20260906030003 27 115 0.0 0.0 0.00 0.00 0.00 83 1011.9
20260906025000 27 115 0.0 0.0 0.00 0.00 0.00 83 1011.9
20260906024501 27 115 0.0 0.0 0.00 0.00 0.00 82 1011.9
20260906024000 27 115 0.0 0.0 0.00 0.00 0.00 82 1011.8
20260906023000 27 115 0.0 0.0 0.00 0.00 0.00 82 1011.8
20260906022500 27 115 0.0 0.0 0.00 0.00 0.00 81 1011.7
20260906022000 27 115 0.0 0.0 0.00 0.00 0.00 81 1011.7
20260906021501 27 115 0.0 0.0 0.00 0.00 0.00 81 1011.6
20260906021001 27 115 0.0 1.6 0.00 0.00 0.00 81 1011.6
20260906020500 27 115 0.0 1.6 0.00 0.00 0.00 81 1011.6
20260906020004 28 115 0.0 0.0 0.00 0.00 0.00 80 1011.5
20260906015501 28 115 0.0 0.0 0.00 0.00 0.00 80 1011.5
20260906015000 28 115 0.0 0.0 0.00 0.00 0.00 80 1011.3
20260906014500 28 115 0.0 0.0 0.00 0.00 0.00 79 1011.2
20260906014000 28 115 0.0 0.0 0.00 0.00 0.00 79 1011.2
20260906013500 28 115 0.0 1.6 0.00 0.00 0.00 79 1011.2
20260906013000 28 115 0.0 1.6 0.00 0.00 0.00 79 1011.0
20260906012501 28 115 0.0 0.0 0.00 0.00 0.00 78 1011.1
20260906012000 29 115 0.0 0.0 0.00 0.00 0.00 77 1011.2
20260906011500 29 115 0.0 1.6 0.00 0.00 0.00 76 1011.1
20260906011000 29 115 0.0 1.6 0.00 0.00 0.00 76 1011.1
20260906010500 30 115 0.0 1.6 0.00 0.00 0.00 76 1011.0
20260906010002 30 115 0.0 0.0 0.00 0.00 0.00 75 1010.9
20260906005500 30 115 0.0 0.0 0.00 0.00 0.00 73 1010.8
20260906005000 30 115 0.0 0.0 0.00 0.00 0.00 73 1010.9
20260906004500 30 115 0.0 0.0 0.00 0.00 0.00 74 1010.8
20260906004001 30 115 0.0 0.0 0.00 0.00 0.00 73 1010.7
20260906003001 31 115 0.0 0.0 0.00 0.00 0.00 72 1010.7
20260906002500 31 115 0.0 1.6 0.00 0.00 0.00 70 1010.8
20260906002000 31 115 0.0 0.0 0.00 0.00 0.00 70 1010.9
20260906001500 31 115 0.0 0.0 0.00 0.00 0.00 69 1010.7
20260906000501 32 115 0.0 0.0 0.00 0.00 0.00 70 1010.8
20260906000002 32 115 0.0 1.6 0.00 0.00 0.00 68 1010.8
20260905235500 32 115 0.0 0.0 0.00 0.00 0.00 67 1010.7
20260905234500 32 115 0.0 0.0 0.00 0.00 0.00 67 1010.8
20260905234000 33 115 0.0 1.6 0.00 0.00 0.00 66 1010.8
20260905233500 33 115 0.0 1.6 0.00 0.00 0.00 66 1010.9
20260905233000 33 115 0.0 0.0 0.00 0.00 0.00 64 1010.9
20260905232500 33 115 0.0 0.0 0.00 0.00 0.00 63 1010.9
20260905232001 33 115 0.0 0.0 0.00 0.00 0.00 62 1010.9
20260905231500 33 115 0.0 1.6 0.00 0.00 0.00 65 1011.0
20260905231000 33 115 0.0 1.6 0.00 0.00 0.00 64 1010.9
20260905230500 34 115 0.0 1.6 0.00 0.00 0.00 62 1010.8
20260905225459 34 115 0.0 0.0 0.00 0.00 0.00 59 1010.9
20260905225000 34 115 0.0 0.0 0.00 0.00 0.00 59 1011.0
20260905224500 34 115 0.0 3.2 0.00 0.00 0.00 58 1010.9
20260905223959 35 115 0.0 3.2 0.00 0.00 0.00 58 1011.0
20260905223501 35 5 0.0 3.2 0.00 0.00 0.00 58 1011.0
20260905223000 35 242 0.0 3.2 0.00 0.00 0.00 56 1011.0
20260905222500 35 242 0.0 1.6 0.00 0.00 0.00 56 1011.0
20260905222000 35 242 0.0 1.6 0.00 0.00 0.00 57 1011.0
20260905221500 35 234 0.0 3.2 0.00 0.00 0.00 57 1011.1
20260905220959 35 234 1.6 3.2 0.00 0.00 0.00 55 1011.0
20260905220459 35 234 1.6 3.2 0.00 0.00 0.00 55 1011.0
20260905220004 35 234 1.6 3.2 0.00 0.00 0.00 56 1011.1
20260905215500 35 234 1.6 3.2 0.00 0.00 0.00 56 1011.1
20260905214500 34 234 1.6 4.8 0.00 0.00 0.00 56 1011.1
20260905214001 34 196 0.0 3.2 0.00 0.00 0.00 56 1011.2
20260905213459 34 98 1.6 6.4 0.00 0.00 0.00 57 1011.2
20260905213000 34 98 1.6 6.4 0.00 0.00 0.00 57 1011.2
20260905212500 34 153 1.6 3.2 0.00 0.00 0.00 57 1011.3
20260905210959 35 156 1.6 3.2 0.00 0.00 0.00 54 1011.3
20260905210501 36 156 1.6 8.0 0.00 0.00 0.00 51 1011.3
20260905210002 36 156 1.6 8.0 0.00 0.00 0.00 50 1011.3
20260905205000 37 69 1.6 6.4 0.00 0.00 0.00 48 1011.4
20260905204500 37 51 1.6 6.4 0.00 0.00 0.00 50 1011.4
20260905203959 37 49 1.6 6.4 0.00 0.00 0.00 51 1011.5
20260905203459 37 153 1.6 4.8 0.00 0.00 0.00 49 1011.5
20260905202959 37 46 1.6 4.8 0.00 0.00 0.00 51 1011.6
20260905202501 37 82 1.6 4.8 0.00 0.00 0.00 53 1011.7
20260905201959 37 142 1.6 4.8 0.00 0.00 0.00 51 1011.9
20260905201500 37 141 0.0 3.2 0.00 0.00 0.00 52 1012.0
20260905201001 37 57 1.6 4.8 0.00 0.00 0.00 51 1011.9
20260905200500 37 57 3.2 6.4 0.00 0.00 0.00 49 1012.0
20260905200002 38 31 1.6 6.4 0.00 0.00 0.00 48 1012.1
20260905195459 38 148 1.6 8.0 0.00 0.00 0.00 48 1012.2
20260905195000 38 162 1.6 6.4 0.00 0.00 0.00 48 1012.3
20260905194500 37 97 1.6 6.4 0.00 0.00 0.00 50 1012.3
20260905193959 37 355 1.6 6.4 0.00 0.00 0.00 54 1012.4
20260905193000 37 5 1.6 4.8 0.00 0.00 0.00 52 1012.4
20260905192000 36 349 1.6 6.4 0.00 0.00 0.00 51 1012.6
20260905190959 36 321 1.6 6.4 0.00 0.00 0.00 52 1012.7
20260905190459 37 311 1.6 6.4 0.00 0.00 0.00 50 1012.9
20260905190002 37 155 1.6 4.8 0.00 0.00 0.00 49 1012.8
20260905185459 37 157 1.6 4.8 0.00 0.00 0.00 52 1012.9
20260905184959 37 156 1.6 4.8 0.00 0.00 0.00 49 1013.0
20260905184500 37 134 1.6 4.8 0.00 0.00 0.00 49 1013.1
20260905184001 37 263 1.6 4.8 0.00 0.00 0.00 51 1013.0
20260905182959 36 46 1.6 4.8 0.00 0.00 0.00 53 1013.2
20260905182459 36 46 1.6 6.4 0.00 0.00 0.00 51 1013.3
20260905181959 36 105 1.6 6.4 0.00 0.00 0.00 53 1013.3
20260905180959 36 240 1.6 6.4 0.00 0.00 0.00 53 1013.3
20260905180501 36 12 1.6 6.4 0.00 0.00 0.00 57 1013.3
20260905180002 36 92 1.6 6.4 0.00 0.00 0.00 54 1013.4
20260905175459 36 150 1.6 3.2 0.00 0.00 0.00 55 1013.4
20260905174959 36 150 1.6 4.8 0.00 0.00 0.00 53 1013.5
20260905174459 36 150 1.6 8.0 0.00 0.00 0.00 55 1013.6
20260905174000 36 46 1.6 6.4 0.00 0.00 0.00 54 1013.5
20260905173459 36 13 1.6 4.8 0.00 0.00 0.00 58 1013.7
20260905173001 36 178 1.6 4.8 0.00 0.00 0.00 59 1013.6
20260905172001 36 248 1.6 6.4 0.00 0.00 0.00 56 1013.7
20260905171459 35 42 1.6 4.8 0.00 0.00 0.00 60 1013.8
20260905170959 35 66 1.6 4.8 0.00 0.00 0.00 59 1013.8
20260905170459 35 126 1.6 4.8 0.00 0.00 0.00 59 1013.9
20260905170001 35 51 1.6 6.4 0.00 0.00 0.00 62 1013.9
20260905165458 35 119 3.2 6.4 0.00 0.00 0.00 60 1014.0
20260905164958 34 169 1.6 4.8 0.00 0.00 0.00 61 1014.1
20260905163958 34 350 1.6 6.4 0.00 0.00 0.00 64 1014.2
20260905163500 34 92 1.6 3.2 0.00 0.00 0.00 62 1014.2
20260905162958 34 71 1.6 9.7 0.00 0.00 0.00 63 1014.3
20260905162458 33 67 1.6 9.7 0.00 0.00 0.00 64 1014.3
20260905161958 33 152 1.6 4.8 0.00 0.00 0.00 64 1014.3
20260905161459 33 130 0.0 3.2 0.00 0.00 0.00 67 1014.4
20260905161000 33 129 1.6 9.7 0.00 0.00 0.00 66 1014.4
20260905160500 33 128 1.6 9.7 0.00 0.00 0.00 66 1014.4
20260905160004 33 132 1.6 6.4 0.00 0.00 0.00 69 1014.4
20260905155459 32 134 1.6 6.4 0.00 0.00 0.00 69 1014.4
20260905154959 32 121 1.6 4.8 0.00 0.00 0.00 69 1014.5
20260905153959 32 53 0.0 3.2 0.00 0.00 0.00 70 1014.5
20260905153459 32 53 0.0 3.2 0.00 0.00 0.00 71 1014.5
20260905152959 31 49 1.6 3.2 0.00 0.00 0.00 71 1014.5
20260905152501 31 124 0.0 3.2 0.00 0.00 0.00 73 1014.5
20260905151459 31 124 0.0 1.6 0.00 0.00 0.00 75 1014.5
20260905151000 31 124 0.0 1.6 0.00 0.00 0.00 77 1014.6
20260905150459 30 124 0.0 1.6 0.00 0.00 0.00 77 1014.6
20260905150001 30 124 0.0 1.6 0.00 0.00 0.00 78 1014.6
20260905145458 30 124 0.0 0.0 0.00 0.00 0.00 78 1014.5
20260905144958 30 124 0.0 3.2 0.00 0.00 0.00 78 1014.5
20260905144458 30 124 0.0 3.2 0.00 0.00 0.00 79 1014.5
20260905143958 29 123 0.0 0.0 0.00 0.00 0.00 81 1014.4
20260905143458 28 123 0.0 0.0 0.00 0.00 0.00 85 1014.4
20260905142959 28 123 0.0 0.0 0.00 0.00 0.00 85 1014.4
20260905142459 27 123 0.0 0.0 0.00 0.00 0.00 86 1014.4
20260905141958 27 123 0.0 0.0 0.00 0.00 0.00 88 1014.4
20260905141458 27 123 0.0 0.0 0.00 0.00 0.00 87 1014.4
20260905140459 26 123 0.0 0.0 0.00 0.00 0.00 88 1014.4
20260905140001 26 123 0.0 0.0 0.00 0.00 0.00 89 1014.4
20260905135458 26 123 0.0 0.0 0.00 0.00 0.00 90 1014.4
20260905133958 25 123 0.0 0.0 0.00 0.00 0.00 93 1014.3
20260905133458 25 123 0.0 0.0 0.00 0.00 0.00 93 1014.2
20260905132958 25 123 0.0 0.0 0.00 0.00 0.00 93 1014.3
20260905132458 25 123 0.0 0.0 0.00 0.00 0.00 93 1014.2
20260905131458 25 123 0.0 0.0 0.00 0.00 0.00 94 1014.3
20260905130959 24 123 0.0 0.0 0.00 0.00 0.00 94 1014.3
20260905130458 24 123 0.0 0.0 0.00 0.00 0.00 94 1014.3
20260905130002 24 123 0.0 0.0 0.00 0.00 0.00 94 1014.1
20260905125459 24 123 0.0 0.0 0.00 0.00 0.00 94 1014.2
20260905124959 24 123 0.0 0.0 0.00 0.00 0.00 94 1014.2
20260905124459 24 123 0.0 0.0 0.00 0.00 0.00 94 1014.1
20260905123959 23 123 0.0 0.0 0.00 0.00 0.00 94 1014.0
20260905123501 23 118 0.0 0.0 0.00 0.00 0.00 94 1014.1
20260905122959 23 118 0.0 0.0 0.00 0.00 0.00 94 1013.9
20260905122459 23 118 0.0 0.0 0.00 0.00 0.00 94 1013.8
20260905121959 23 118 0.0 0.0 0.00 0.00 0.00 94 1013.9
20260905120004 23 118 0.0 0.0 0.00 0.00 0.00 94 1013.8
20260905115458 23 118 0.0 0.0 0.00 0.00 0.00 94 1013.8
20260905114458 23 118 0.0 0.0 0.00 0.00 0.00 93 1013.6
20260905113458 23 118 0.0 0.0 0.00 0.00 0.00 93 1013.5
20260905112958 23 118 0.0 0.0 0.00 0.00 0.00 93 1013.5
20260905112458 23 118 0.0 0.0 0.00 0.00 0.00 93 1013.4
20260905111958 23 118 0.0 0.0 0.00 0.00 0.00 93 1013.4
20260905111458 24 118 0.0 0.0 0.00 0.00 0.00 93 1013.3
20260905110958 24 118 0.0 0.0 0.00 0.00 0.00 92 1013.4
20260905110459 23 118 0.0 0.0 0.00 0.00 0.00 92 1013.3
20260905110001 24 118 0.0 0.0 0.00 0.00 0.00 92 1013.3
20260905105458 24 118 0.0 0.0 0.00 0.00 0.00 92 1013.4
20260905104958 24 118 0.0 0.0 0.00 0.00 0.00 92 1013.3
20260905104458 24 118 0.0 0.0 0.00 0.00 0.00 92 1013.3
20260905103958 24 118 0.0 0.0 0.00 0.00 0.00 92 1013.3
20260905103458 24 118 0.0 0.0 0.00 0.00 0.00 92 1013.5
20260905102458 24 118 0.0 0.0 0.00 0.00 0.00 92 1013.6
20260905101959 24 118 0.0 0.0 0.00 0.00 0.00 92 1013.6
20260905101458 24 118 0.0 0.0 0.00 0.00 0.00 92 1013.5
20260905100458 24 118 0.0 0.0 0.00 0.00 0.00 92 1013.5
20260905100001 24 118 0.0 0.0 0.00 0.00 0.00 92 1013.4
20260905095458 24 118 0.0 0.0 0.00 0.00 0.00 92 1013.3
20260905094958 24 118 0.0 0.0 0.00 0.00 0.00 92 1013.4
20260905094458 24 118 0.0 0.0 0.00 0.00 0.00 92 1013.4
20260905093958 24 118 0.0 0.0 0.00 0.00 0.00 92 1013.4
20260905092958 24 118 0.0 0.0 0.00 0.00 0.00 91 1013.2
20260905092458 24 118 0.0 0.0 0.00 0.00 0.00 91 1013.2
20260905091958 24 118 0.0 0.0 0.00 0.00 0.00 91 1013.2
20260905091458 24 118 0.0 0.0 0.00 0.00 0.00 91 1013.1
20260905090958 24 118 0.0 0.0 0.00 0.00 0.00 91 1013.2
20260905090002 24 118 0.0 0.0 0.00 0.00 0.00 91 1013.1
20260905085458 25 118 0.0 0.0 0.00 0.00 0.00 91 1013.2
20260905084957 25 118 0.0 0.0 0.00 0.00 0.00 91 1013.2
20260905084457 25 118 0.0 0.0 0.00 0.00 0.00 91 1013.2
20260905083957 25 118 0.0 0.0 0.00 0.00 0.00 90 1013.2
20260905083457 25 118 0.0 0.0 0.00 0.00 0.00 91 1013.2
20260905082957 25 118 0.0 0.0 0.00 0.00 0.00 91 1013.3
20260905082458 25 118 0.0 0.0 0.00 0.00 0.00 90 1013.3
20260905081958 25 118 0.0 0.0 0.00 0.00 0.00 90 1013.2
20260905081459 25 118 0.0 0.0 0.00 0.00 0.00 90 1013.3
20260905080457 25 118 0.0 0.0 0.00 0.00 0.00 90 1013.3
20260905080000 25 118 0.0 0.0 0.00 0.00 0.00 89 1013.3
20260905075457 25 118 0.0 0.0 0.00 0.00 0.00 89 1013.3
20260905074957 25 118 0.0 0.0 0.00 0.00 0.00 89 1013.3
20260905074457 25 118 0.0 0.0 0.00 0.00 0.00 89 1013.3
20260905073959 25 118 0.0 0.0 0.00 0.00 0.00 89 1013.3
20260905072957 25 118 0.0 0.0 0.00 0.00 0.00 89 1013.4
20260905072457 25 118 0.0 0.0 0.00 0.00 0.00 88 1013.4
20260905071957 25 118 0.0 0.0 0.00 0.00 0.00 88 1013.4
20260905071457 25 118 0.0 0.0 0.00 0.00 0.00 88 1013.5
20260905070957 25 118 0.0 0.0 0.00 0.00 0.00 88 1013.5
20260905070459 25 118 0.0 0.0 0.00 0.00 0.00 88 1013.5
20260905070000 26 118 0.0 0.0 0.00 0.00 0.00 87 1013.4
20260905065457 26 118 0.0 0.0 0.00 0.00 0.00 87 1013.5
20260905064957 26 118 0.0 0.0 0.00 0.00 0.00 87 1013.5
20260905064457 26 117 0.0 0.0 0.00 0.00 0.00 87 1013.6
20260905063457 26 117 0.0 0.0 0.00 0.00 0.00 87 1013.6
20260905061959 26 117 0.0 0.0 0.00 0.00 0.00 86 1013.6
20260905061458 26 117 0.0 0.0 0.00 0.00 0.00 86 1013.6
20260905060959 26 117 0.0 0.0 0.00 0.00 0.00 86 1013.5
20260905060459 26 117 0.0 0.0 0.00 0.00 0.00 86 1013.6
20260905055500 26 117 0.0 0.0 0.00 0.00 0.00 85 1013.5
20260905054958 26 117 0.0 0.0 0.00 0.00 0.00 85 1013.6
20260905054459 26 117 0.0 0.0 0.00 0.00 0.00 85 1013.5
20260905053459 26 117 0.0 0.0 0.00 0.00 0.00 85 1013.5